Location: Bégole
(43.1574°N, 0.3291°E)
Time: 12:58:25
(UTC+00:00)

CZ-4B R/B - Pass Details

Date: 28 January 2023
Orbit: 809 x 881 km, 99.0° (Epoch: 20 March)

Event Time Altitude Azimuth Distance (km) Brightness Sun altitude
Rises 17:29:42 0° 119° (ESE) 3,328 5.9 -5.0°
Reaches altitude 10° 17:32:42 10° 101° (E) 2,408 5.1 -5.5°
Maximum altitude 17:36:13 18° 59° (ENE) 1,905 4.5 -6.1°
Drops below altitude 10° 17:39:47 10° 18° (NNE) 2,442 5.3 -6.7°
Sets 17:42:51 0° 0° (N) 3,394 6.2 -7.2°
